Notices

What's New in latest Release from April 7th, 2021:

- Updated Glossary, including Speed of Maximum Gust, and Total Hourly Precipitation

- Updated national and regional climate services offices contacts and prices information

- Addition of station inventory lists for 1981-2010, 1971-2000, and 1961-1990 Normals.

If you haven't already, please take our survey and provide feedback about our website: https://eccc.sondage-survey.ca/f/LanguageSelection.aspx?s=442ca660-fcf1-47c0-95a9-59707d6fd709

Hourly Data Report for November 20, 2019

VICTORIA UNIVERSITY CS
BRITISH COLUMBIA
Current Station Operator: ECCC - MSC

48°27'25.200" N
123°18'16.600" W
60.10 m
1018598
71783
WYJ

Download Data

Hourly Data (November 2019)
Hourly Data Report for November 20, 2019
TIME
LST
Temp Definition
°C
Dew Point Definition
°C
Rel Hum Definition
%
Precip. Amount Definition
mm

Wind Dir Definition
10's deg

Wind Spd Definition
km/h
Visibility Definition
km
Stn Press Definition
kPa
Hmdx Definition


Wind Chill Definition


Weather Definition


00:00 7.9 3.7 75 0.0 36 10   101.37     LegendNANA
01:00 8.3 3.8 73 0.0 36 10   101.40     LegendNANA
02:00 6.9 3.7 80 0.0 36 11   101.45     LegendNANA
03:00 6.5 3.2 79 0.0 32 8   101.47     LegendNANA
04:00 6.0 2.8 80 0.0 28 4   101.48     LegendNANA
05:00 6.1 3.5 84 0.0 32 7   101.51     LegendNANA
06:00 5.9 3.2 83 0.0 31 9   101.50     LegendNANA
07:00 5.5 2.7 82 0.0 25 4   101.52     LegendNANA
08:00 5.0 2.2 82 0.0 26 4   101.59     LegendNANA
09:00 6.8 3.1 77 0.0 33 8   101.58     LegendNANA
10:00 8.5 3.2 69 0.0 34 9   101.59     LegendNANA
11:00 9.0 3.6 69 0.0 2 9   101.55     LegendNANA
12:00 9.4 4.4 71 0.0 35 9   101.53     LegendNANA
13:00 9.5 3.5 66 0.0 36 10   101.46     LegendNANA
14:00 9.7 3.4 65 0.0 36 6   101.39     LegendNANA
15:00 9.1 3.9 70 0.0 1 6   101.34     LegendNANA
16:00 7.9 4.7 80 0.0 2 2   101.28     LegendNANA
17:00 6.9 4.0 82 0.0 34 6   101.27     LegendNANA
18:00 3.9 2.4 90 0.0 34 3   101.24     LegendNANA
19:00 4.8 3.8 93 0.0 35 4   101.20     LegendNANA
20:00 6.1 4.1 87 0.0 35 4   101.19     LegendNANA
21:00 5.2 3.4 88 0.0 33 6   101.18     LegendNANA
22:00 5.2 3.2 87 0.0 35 5   101.15     LegendNANA
23:00 5.3 2.8 84 0.0 1 6   101.12     LegendNANA

Notes on Data Quality.

Legend

  • E = Estimated
  • M = Missing
  • NA = Not Available*
  • [empty] = Indicates an unobserved value
Date modified: